COSMOS 2251 DEB, 34962

Orbit data source: Space-Track

COSMOS 2251 DEB, 34962 is space debris in LEO originally from a launch on Wed, 16 Jun 1993 UTC launched from the Plesetsk Missile And Space Complex (PKMTR). The debris from Iridium 33, an American commercial communications satellite, has been tracked extensively since its accidental collision with the defunct Russian satellite Cosmos 2251 in 2009. This event, occurring at high speed in low Earth orbit (LEO), generated thousands of pieces of space debris, significantly increasing the risk of further collisions. The Iridium 33 debris cloud has impacted space traffic management and orbital debris mitigation strategies, making it a subject of ongoing study in space situational awareness.

Loading next visibility...
Identifier
34962, 1993-036AER
Orbit
LEO
Country
Flag of CISCIS
Related business
Manufacturer
Unknown
Mission
Spacecraft
Bus & Motor
Unknown
Mass
Unknown
Launch date (UTC)
1993-06-16 (33 years ago)
Launch vehicle
Unknown
Launch site
Plesetsk Missile And Space Complex (PKMTR)
Object type
Payload
Rocket body
Debris
Shape & HBR
Unknown shape, 0.1 m
Radar Cross Section
Small (<0.1 m²)

Expand to show TLE details & history
Last TLE update: 6 hours ago

TLE from 6 hours ago
0 COSMOS 2251 DEB
1 34962U 93036AER 26034.14125320  .00001399  00000-0  39327-3 0  9997
2 34962  74.0294  95.4657 0018498 204.3211 155.7077 14.46749656883363
Epoch: 2026-02-03T03:23Z
TLE epoch observation values (Epoch: 2026-02-03T03:23:24.276Z)
Latitude
0.00002°
Longitude
-88.71189°
Altitude
750.909 km
Speed
7.473 km/s
True Right ascension
06h 21m 51s
True Declination
0° 00' 00"
Sunlit
Object was in full shadow at epoch
Visualization orbit readout
Latitude
Unknown
Longitude
Unknown
Altitude
Unknown
Speed
Unknown
Apparent Right ascension
Unknown
Apparent Declination
Unknown
Sunlit
N/A
Visualization observer readout
Local Sidereal Time
11:39:45
Azimuth
Unknown
Elevation
Unknown
Doppler factor
Unknown
Orbital elements
Apogee altitude
747.053 km
Perigee altitude
720.741 km
Semi-major axis
7,112.034 km
Eccentricity
0.00185
Inclination
74.0294°
RAAN
95.4657°
Arg. of periapsis
204.3211°
True anomaly
155.79472°
Mean anomaly
155.7077°
Eccentric anomaly
155.75123°
Mean motion
3.6187 °/min
Orbital period
99.48 mins
BSTAR
0.00039327
Loading maneuver chart data...
Computing Atmospheric mass density...

Documentation

Showing up to 5 results
|